TRANSIT 18 DEB

基本信息
目录编号:
42668
目录名称:
TRANSIT 18 DEB
国际标识:
1968-012G
轨道中心:
EARTH
物体状态:
已陨落(2025-01-06)
发射日期:
1968-03-02 UTC
轨道信息
数据来源: 国际轨道数据
星历时间: 2024-12-31T08:53:40+0800
半长轴: 6832.674km
偏心率: 0.003101
轨道倾角: 89.932°
近地点辐角: 122.195°
升交点赤经: 267.429°
平近点角: 238.232°
近地点: 433.35km
远地点: 475.728km
周期: 93.680分钟
每日圈数: 15.371518
详细信息
发射场:
AFWTR
轨道高度:
LEO
数据来源:
AOE Integration Group
参考系:
TEME
时间系统:
UTC
历元类型:
SGP4
2D轨道图
3D轨道图
轨道高度分析图
轨道倾角分析图
轨道综合分析图
查看轨道综合分析图